Weather History for Waco, TX

Change the Weather History Date:

Monday, November 19, 2012

  Actual Average Record
Temperature  
Mean Temperature 65 °F 56 °F  
Max Temperature 75 °F 67 °F 87 °F (1949)
Min Temperature 54 °F 45 °F 24 °F (1903)
Degree Days  
Heating Degree Days 0 10  
Month to date heating degree days 124 132  
Since 1 July heating degree days 234 199  
Cooling Degree Days 0 1  
Month to date cooling degree days 34 31  
Year to date cooling degree days 3205 2787  
Growing Degree Days 14 (Base 50)    
Moisture  
Dew Point 50 °F    
Average Humidity 62    
Maximum Humidity 78    
Minimum Humidity 46    
Precipitation  
Precipitation 0.00 in 0.08 in 2.87 in (1992)
Month to date precipitation T 1.90  
Year to date precipitation 31.53 31.02  
Snow  
Snow 0.00 in 0.00 in 0.00 in ()
Month to date snowfall 0.0 0.0  
Since 1 July snowfall 0.0 0.0  
Since 1 September snowfall 0.0 0.0  
Snow Depth 0.00 in    
Sea Level Pressure  
Sea Level Pressure 30.18 in    
Wind  
Wind Speed 9 mph (South)    
Max Wind Speed 16 mph    
Max Gust Speed 20 mph    
Visibility 10 miles    
Events      
T = Trace of Precipitation, MM = Missing Value Source: NWS Daily Summary

Daily Weather History Graph

Daily Weather History Graph

Search for Another Location

Airport:

Trip Planner

Search our weather history database for the weather conditions in past years. The results will help you decide how hot, cold, wet, or windy it might be!

Date:

Astronomy

Nov. 19, 2012 Rise Set
Actual Time 7:00 AM CST 5:27 PM CST
Civil Twilight 6:34 AM CST 5:53 PM CST
Nautical Twilight 6:05 AM CST 6:23 PM CST
Astronomical Twilight 5:36 AM CST 6:52 PM CST
Moon 12:12 PM CST (11/19) 11:46 PM CST (11/19)
Length of Visible Light 11h 18m
Length of Day
10h 26m
Waxing Crescent, 41% of the Moon is Illuminated
Nov 19
Waxing Crescent
Nov 20
First Quarter
Nov 28
Full
Dec 6
Last Quarter
Dec 13
New

Hourly Weather History & Observations

Time (CST) Temp. Dew Point Humidity Pressure Visibility Wind Dir Wind Speed Gust Speed Precip Events Conditions
12:51 AM 60.1 °F 42.1 °F 51% 30.20 in 10.0 mi SSE 11.5 mph - N/A   Clear
1:51 AM 59.0 °F 46.0 °F 62% 30.21 in 10.0 mi South 11.5 mph - N/A   Clear
2:51 AM 57.9 °F 46.9 °F 67% 30.21 in 10.0 mi South 9.2 mph - N/A   Clear
3:51 AM 57.2 °F 46.4 °F 67% 30.22 in 10.0 mi South 10.4 mph - N/A   Mostly Cloudy
4:51 AM 57.9 °F 48.0 °F 70% 30.18 in 10.0 mi South 12.7 mph - N/A   Overcast
5:51 AM 57.0 °F 46.9 °F 69% 30.20 in 10.0 mi South 10.4 mph - N/A   Mostly Cloudy
6:51 AM 55.0 °F 46.9 °F 74% 30.22 in 10.0 mi South 4.6 mph - N/A   Mostly Cloudy
7:51 AM 55.9 °F 46.0 °F 69% 30.24 in 10.0 mi South 10.4 mph - N/A   Overcast
8:51 AM 59.0 °F 46.0 °F 62% 30.25 in 10.0 mi South 8.1 mph - N/A   Overcast
9:51 AM 62.1 °F 45.0 °F 53% 30.25 in 10.0 mi SSE 10.4 mph - N/A   Overcast
10:51 AM 64.0 °F 48.0 °F 56% 30.25 in 10.0 mi South 10.4 mph - N/A   Overcast
11:51 AM 66.0 °F 48.9 °F 54% 30.22 in 10.0 mi South 9.2 mph - N/A   Overcast
12:51 PM 68.0 °F 50.0 °F 52% 30.18 in 10.0 mi South 10.4 mph - N/A   Overcast
1:51 PM 73.0 °F 52.0 °F 48% 30.15 in 10.0 mi South 11.5 mph - N/A   Scattered Clouds
2:51 PM 73.9 °F 52.0 °F 46% 30.13 in 10.0 mi South 11.5 mph - N/A   Clear
3:51 PM 73.9 °F 53.1 °F 48% 30.12 in 10.0 mi SSW 9.2 mph - N/A   Scattered Clouds
4:51 PM 71.1 °F 54.0 °F 55% 30.12 in 10.0 mi South 8.1 mph - N/A   Scattered Clouds
5:51 PM 66.0 °F 55.0 °F 68% 30.13 in 10.0 mi SSE 5.8 mph - N/A   Scattered Clouds
6:51 PM 64.9 °F 54.0 °F 68% 30.15 in 10.0 mi SSE 5.8 mph - N/A   Partly Cloudy
7:51 PM 64.4 °F 53.6 °F 68% 30.16 in 10.0 mi South 6.9 mph - N/A   Partly Cloudy
8:51 PM 63.0 °F 54.0 °F 72% 30.15 in 10.0 mi South 8.1 mph - N/A   Clear
9:51 PM 62.1 °F 54.0 °F 75% 30.16 in 10.0 mi South 9.2 mph - N/A   Clear
10:51 PM 60.8 °F 53.6 °F 77% 30.16 in 10.0 mi South 8.1 mph - N/A   Clear
11:51 PM 60.1 °F 52.0 °F 75% 30.14 in 10.0 mi SSW 9.2 mph - N/A   Clear